SCP
0 0 0 0 0 0 0 0 0 0 0 0 0 0 0 0 0 0 0 0 0 0 0 0 0 0 0 0 0 0 0 0 0 0 0 0 0 0 0 0 0 0 0 0 0
0 0 0 0 0 0 0 0 0 0 0 0 0 0 0 0 0 0 0 0 0 0 0 0 0 0 0 0 0 0 0 0 0 0 0 0 0 0 0 0 0 0 0 0 0
0 0 0 0 0 0 0 0 0 0 0 0 0 0 0 0 0 0 0 0 0 0 0 0 0 0 0 0 0 0 0 0 0 0 0 0 0 0 0 0 0 0 0 0 0
0 0 0 0 0 0 0 0 0 0 0 0 0 0 0 0 0 0 0 0 0 0 0 0 0 0 0 0 0 0 0 0 0 0 0 0 0 0 0 0 0 0 0 0 0
0 0 0 0 0 0 0 0 0 0 0 0 0 0 0 0 0 0 0 0 0 0 0 0 0 0 0 0 0 0 0 0 0 0 0 0 0 0 0 0 0 0 0 0 0
0 0 0 0 0 0 0 0 0 0 0 0 0 0 0 0 0 0 0 0 0 0 0 0 0 0 0 0 0 0 0 0 0 0 0 0 0 0 0 0 0 0 0 0 0
0 0 0 0 0 0 0 0 0 0 0 0 0 0 0 0 0 0 0 0 0 0 0 0 0 0 0 0 0 0 0 0 0 -0 0 0 0 0 0 0 0 0 0 0 0
0 0 0 0 0 0 0 0 0 0 0 0 0 0 0 0 0 0 0 0 0 0 0 0 0 0 0 0 0 0 0 0 0 0 0 0 0 0 0 0 0 0 0 0 0
0 0 0 0 0 0 0 0 0 0 0 0 0 0 0 0 0 0 0 0 0 0 0 0 0 0 0 0 0 0 0 0 0 0 0 0 0 0 0 0 0 0 0 0 0
0 0 0 0 0 0 0 0 0 0 0 0 0 0 0 0 0 0 0 0 0 0 0 0 0 0 0 0 0 0 0 0 0 0 0 0 0 0 0 0 0 0 0 0 0
0 0 0 0 0 0 0 0 0 0 0 0 0 0 0 0 0 0 0 0 0 0 0 0 0 0 0 0 0 0 0 0 0 0 0 0 0 0 0 0 0 0 0 0 0
0 0 0 0 0 0 0 0 0 0 0 0 0 0 0 0 0 0 0 0 0 0 0 0 0 0 0 0 0 0 0 0 0 0 0 0 0 0 0 0 0 0 0 0 0
0 0 0 0 0 0 0 0 0 0 0 0 0 0 0 0 0 0 0 0 0 0 0 0 0 0 0 0 0 0 0 0 0 0 0 0 0 0 0 0 0 0 0 0 0
0 0 0 0 0 0 0 0 0 0 0 0 0 0 0 0 0 0 0 0 0 0 0 0 0 0 0 0 0 0 0 0 0 0 0 0 -0 -0 0 0 0 0 0 0 0
0 0 0 0 0 0 0 0 0 0 0 0 0 0 0 0 0 0 0 0 0 0 0 0 0 0 0 0 0 0 0 0 0 0 0 0 0 -0 -0 0 0 0 0 0 0
0 0 0 0 0 0 0 0 0 0 0 0 0 0 0 0 0 0 0 0 0 0 0 0 0 0 0 0 0 0 0 0 0 0 0 0 0 -0 -0 0 0 0 0 0 0
0 0 0 0 0 0 0 0 0 0 0 0 0 0 0 0 0 0 0 0 0 0 0 0 0 0 0 0 0 0 0 0 0 0 0 0 0 0 -0 -0 0 0 0 0 0
0 0 0 0 0 0 0 0 0 0 0 0 0 0 0 0 0 0 0 0 0 0 0 0 0 0 0 0 0 0 0 0 0 0 0 0 0 0 0 0 0 0 0 0 0
0 0 0 0 0 0 0 0 0 0 0 0 0 0 0 0 0 0 0 0 0 0 0 0 0 0 0 0 0 0 0 0 0 0 0 0 0 0 0 0 0 0 0 0 0
0 0 0 0 0 0 0 0 0 0 0 0 0 0 0 0 0 0 0 0 0 0 0 0 0 0 0 0 0 0 0 0 0 0 0 0 0 0 0 -0 0 0 0 0 0
0 0 0 0 0 0 0 0 0 0 0 0 0 0 0 0 0 0 0 0 0 0 0 0 0 0 0 0 0 0 0 0 0 0 0 0 0 0 0 0 0 0 0 0 0
0 0 0 0 0 0 0 0 0 0 0 0 0 0 0 0 0 0 0 0 0 0 0 0 0 0 0 0 0 0 0 0 0 0 0 0 0 0 0 0 0 -0 0 0 0
0 0 0 0 0 0 0 0 0 0 0 0 0 0 0 0 0 0 0 0 0 0 0 0 0 0 0 0 0 0 0 0 0 0 0 0 0 0 0 0 0 0 0 0 0
0 0 0 0 0 0 0 0 0 0 0 0 0 0 0 0 0 0 0 0 0 0 0 0 0 0 0 0 0 0 0 0 0 0 0 0 0 0 0 0 0 0 0 0 0
0 0 0 0 0 0 0 0 0 0 0 0 0 0 0 0 0 0 0 0 0 0 0 0 0 0 0 0 0 0 0 0 0 0 0 0 0 0 0 0 0 0 0 0 0
0 0 0 0 0 0 0 0 0 0 0 0 0 0 0 0 0 0 0 0 0 0 0 0 0 0 0 0 0 0 0 0 0 0 0 0 0 0 0 0 0 0 0 0 0
0 0 0 0 0 0 0 0 0 0 0 0 0 0 0 0 0 0 0 0 0 0 0 0 0 0 0 0 0 0 0 0 0 0 0 0 0 0 0 -0 -0 0 0 0 0
Wind_Speed_500mb
49 45 45 46 47 45 45 45 44 41 40 34 30 30 28 27 26 23 29 32 40 36 24 21 25 26 13 9 13 18 7 7 10 12 8 6 6 6 15 19 25 25 13 11 47
52 50 44 44 45 46 45 43 41 38 36 37 33 31 28 25 24 30 28 22 35 28 25 28 20 19 12 6 10 11 10 17 12 8 6 8 14 10 9 18 16 28 24 20 49
53 53 51 45 45 44 44 42 38 36 31 33 33 30 24 17 15 21 30 28 29 30 28 25 16 14 14 10 10 9 15 12 13 14 12 7 7 9 9 8 33 52 40 36 56
60 57 55 49 47 45 45 41 36 35 35 28 30 26 27 16 12 5 20 29 37 31 31 32 30 12 5 8 8 4 24 20 9 14 23 15 17 10 27 33 26 38 45 50 62
63 63 60 55 49 46 46 42 37 34 35 32 27 26 26 18 21 11 17 7 33 26 23 29 33 24 10 7 4 4 8 22 12 12 12 28 25 23 24 43 23 28 45 54 58
74 66 63 64 56 47 43 43 40 39 37 31 28 30 31 17 22 39 26 10 14 19 20 21 14 24 13 13 10 2 13 38 31 26 21 9 29 23 38 39 39 29 49 60 63
82 73 69 65 63 55 47 42 41 43 42 35 30 33 33 44 14 32 32 22 15 24 27 22 22 19 14 3 8 2 9 16 18 10 14 8 20 15 59 39 44 46 45 61 69
83 81 73 72 70 62 50 43 38 41 45 37 34 35 20 33 39 22 17 25 22 24 18 17 25 23 8 8 2 5 1 8 3 10 12 17 39 6 46 51 47 53 56 64 72
80 87 81 75 72 65 51 44 37 37 44 42 37 25 13 24 42 34 18 22 24 25 18 16 17 11 12 5 7 5 5 7 11 10 10 19 9 22 54 49 57 61 65 67 71
82 88 90 81 76 70 56 46 36 40 42 38 30 15 23 31 44 49 35 28 25 28 23 18 14 7 7 15 21 16 10 12 15 5 5 16 29 16 40 37 67 78 77 73 79
80 90 89 85 80 77 64 59 37 18 50 21 25 12 8 31 33 56 51 33 33 27 12 17 10 31 33 25 15 6 14 19 3 5 2 14 34 18 45 52 48 63 72 81 93
84 81 91 94 87 83 80 81 71 20 24 47 12 37 13 37 22 44 56 39 20 21 12 1 34 7 11 18 32 25 25 28 6 6 3 18 41 24 31 55 49 61 77 83 93
81 91 90 102 96 92 99 97 76 37 15 32 30 39 38 32 16 46 59 41 20 28 34 33 11 39 24 15 30 38 43 26 18 6 11 8 41 33 23 56 59 68 76 88 93
66 69 91 91 91 100 105 88 70 33 9 8 27 29 32 19 8 46 62 43 15 34 26 26 47 9 16 36 30 40 26 24 24 10 20 8 30 42 19 39 37 68 69 79 101
66 72 73 113 103 111 103 87 72 32 6 14 22 20 54 27 33 32 61 38 20 16 15 18 15 33 40 37 29 28 12 16 29 29 25 34 12 44 23 37 49 35 67 80 103
71 76 73 100 112 112 97 92 64 11 15 8 18 23 25 44 16 29 37 30 20 10 10 17 5 14 16 32 36 10 17 12 16 24 23 56 32 56 38 50 36 29 58 84 96
79 75 82 85 99 105 101 83 18 17 6 21 20 30 39 32 24 15 31 29 16 20 22 17 27 6 9 12 17 22 15 8 9 11 25 21 27 54 17 31 48 32 48 75 89
81 79 81 89 50 120 108 32 21 25 16 9 19 36 31 23 24 25 33 31 34 14 8 24 11 43 18 43 10 25 26 10 14 13 21 7 22 41 32 75 88 74 75 67 80
81 81 81 85 86 105 91 35 27 26 20 29 34 36 18 20 19 14 35 42 33 40 20 17 17 4 6 10 31 14 22 29 22 12 8 10 19 32 34 27 35 64 69 76 71
83 86 85 77 71 114 45 38 13 19 20 29 18 22 31 45 20 32 32 33 27 54 14 7 8 11 12 10 27 36 8 14 20 31 49 18 27 31 9 37 46 39 54 75 89
80 51 65 79 76 62 37 20 18 24 47 16 14 16 26 36 27 35 29 11 51 34 58 10 9 5 16 26 35 19 23 19 8 12 23 30 24 37 38 21 34 41 72 84 81
76 23 62 83 27 19 33 20 24 20 19 9 10 9 29 38 30 38 29 13 43 45 49 46 8 25 43 6 27 37 40 47 21 36 16 24 46 7 20 36 40 47 63 78 73
40 24 43 89 29 25 28 22 14 18 17 14 8 6 6 26 20 27 17 14 22 36 28 25 19 17 8 7 10 30 47 44 46 9 43 35 38 15 12 19 47 45 61 64 57
28 12 25 68 49 32 39 32 16 15 10 10 11 12 14 12 4 30 16 11 30 36 49 42 11 17 28 8 10 24 39 49 44 28 43 38 66 43 17 20 23 42 51 45 47
21 10 14 14 24 28 42 39 32 19 8 21 7 10 18 10 24 9 14 5 5 26 17 15 22 21 39 38 28 33 47 56 52 65 34 65 51 47 36 35 26 47 47 43 49
14 12 9 9 46 27 48 46 52 27 19 30 20 21 31 18 16 15 15 7 9 6 14 8 14 10 36 28 37 49 43 48 60 66 59 75 61 17 23 30 28 46 42 47 56
25 24 23 22 26 31 32 55 44 29 8 21 20 22 20 14 26 31 40 15 9 16 13 10 7 3 13 11 23 37 68 52 61 61 63 56 81 22 18 21 23 45 53 55 53
Wind_Direction_500mb
242 241 240 239 240 240 237 234 239 239 233 234 241 245 244 247 251 253 244 239 236 244 260 265 243 231 262 229 159 135 82 225 231 175 244 288 208 209 203 173 171 198 227 240 189
245 239 238 242 240 239 242 237 232 235 237 229 232 241 243 240 248 254 260 258 240 229 241 254 251 226 219 245 206 154 145 220 208 224 233 301 211 229 191 183 209 203 209 208 184
241 237 235 237 241 241 240 240 233 226 227 228 224 230 237 236 269 260 257 248 237 228 220 229 233 209 218 208 213 214 188 150 229 251 296 318 262 209 202 248 214 203 198 193 188
237 234 235 234 238 241 240 239 232 223 218 226 216 221 226 218 212 204 246 222 215 212 214 220 223 188 199 201 237 251 250 198 202 255 310 275 277 244 216 229 257 226 217 195 197
237 232 232 229 234 238 240 237 229 219 217 218 218 211 211 214 224 199 51 190 204 199 202 212 209 195 188 185 241 229 280 282 249 235 249 294 282 263 241 245 257 229 210 208 207
236 232 228 226 227 232 235 233 225 212 211 209 215 208 204 222 236 232 248 260 203 199 187 193 216 209 192 201 190 171 272 274 287 283 262 267 279 260 259 256 242 238 217 213 215
231 231 228 225 222 227 231 233 224 210 204 205 205 215 211 223 233 226 236 231 204 209 216 211 216 200 171 174 230 265 279 301 279 245 241 220 273 198 252 254 238 234 228 217 223
225 227 227 223 219 220 223 221 217 207 199 196 201 204 225 231 228 217 202 206 196 203 202 203 204 223 180 147 142 197 140 248 43 172 226 196 243 229 247 243 240 234 230 222 225
230 226 225 221 215 214 212 208 205 202 196 196 201 197 235 215 203 197 167 181 186 178 195 198 194 207 167 166 236 204 259 208 318 209 210 206 272 234 248 247 242 241 236 231 229
233 228 221 220 211 208 202 194 185 191 187 195 207 189 219 201 199 190 180 194 162 175 181 184 184 197 187 191 216 214 220 218 203 195 37 286 266 271 267 249 233 245 244 239 237
228 226 213 213 210 203 191 173 171 183 187 181 193 199 294 192 188 197 194 171 161 167 167 184 203 215 214 217 235 334 245 243 145 187 281 246 271 250 257 260 247 253 249 245 242
222 220 220 216 209 200 195 185 185 188 183 206 182 198 194 167 162 188 189 187 179 188 179 18 241 166 198 212 233 241 262 263 311 234 294 278 272 251 244 258 248 248 251 250 247
221 219 232 215 206 199 199 199 186 149 138 212 206 201 171 179 177 189 183 186 183 195 205 213 221 200 207 212 231 237 240 252 253 5 254 319 283 265 241 257 252 255 252 254 255
210 212 207 201 197 195 202 194 187 165 82 209 193 212 191 165 228 192 187 173 175 200 193 230 236 198 196 225 207 242 217 246 267 277 262 150 278 262 221 245 241 237 237 244 251
207 212 209 203 193 193 194 186 174 153 133 192 176 188 196 180 139 196 186 187 181 163 181 219 181 208 223 218 207 237 169 204 231 246 260 251 258 276 193 235 245 234 232 234 248
226 217 214 208 193 195 191 175 161 114 222 187 143 165 158 193 182 161 187 203 182 179 229 224 184 197 212 215 206 171 251 288 257 233 235 239 219 273 241 240 264 232 236 236 240
226 221 223 210 185 185 180 166 171 181 222 172 181 174 174 186 186 163 189 195 174 186 218 211 231 246 218 184 208 201 197 233 231 213 243 235 221 243 253 252 234 242 238 242 245
212 222 223 221 201 177 171 174 191 190 196 161 159 169 183 144 201 176 168 199 219 203 153 203 274 212 183 216 197 205 198 205 223 227 251 214 216 238 238 243 250 257 252 247 245
209 214 220 221 217 177 167 189 173 179 167 149 131 157 186 192 163 162 191 203 201 198 187 178 243 204 161 167 186 190 224 226 274 248 264 218 272 287 264 255 248 244 240 239 250
205 208 216 213 215 183 183 175 169 156 129 150 149 173 181 184 164 190 178 210 213 204 191 236 267 188 184 169 217 224 209 197 209 244 247 234 247 249 242 231 230 228 233 233 235
204 200 215 208 202 192 192 189 175 172 151 154 154 149 179 181 188 187 197 238 199 190 199 197 205 198 144 202 195 202 227 227 268 205 242 258 254 241 237 225 239 246 236 232 232
198 204 197 194 186 187 184 176 180 166 158 114 114 104 163 167 183 190 205 218 186 176 196 206 224 243 228 151 220 224 224 218 228 225 227 255 264 215 242 232 236 248 241 233 235
193 171 198 193 200 174 167 178 205 155 151 152 133 139 154 165 173 201 180 220 179 180 181 173 205 239 249 243 229 219 218 223 232 270 236 232 254 214 280 283 254 237 242 232 219
157 158 172 199 200 168 166 173 165 151 137 129 129 108 110 153 195 187 189 196 199 192 208 162 194 220 235 214 151 214 222 220 221 232 242 239 256 261 287 258 269 264 237 207 203
170 175 186 173 203 172 167 165 175 160 169 142 76 190 151 141 193 157 165 131 205 204 199 211 248 244 255 265 269 225 222 215 217 229 228 245 243 258 256 274 266 260 224 190 195
150 132 127 180 183 199 172 183 180 170 162 178 154 186 187 163 169 148 135 186 192 188 182 181 247 224 267 270 254 251 249 224 221 227 234 249 258 276 267 250 239 243 233 210 203
162 154 146 171 177 174 193 177 183 161 25 180 127 163 201 154 124 139 172 184 170 150 170 161 153 190 277 289 303 259 227 221 226 228 225 234 241 240 288 281 270 250 235 228 217
Wind_Speed_850mb
49 45 45 46 47 45 45 45 44 41 40 34 30 30 28 27 26 23 29 32 40 36 24 21 25 26 13 9 13 18 7 7 10 12 8 6 6 6 15 19 25 25 13 11 47
52 50 44 44 45 46 45 43 41 38 36 37 33 31 28 25 24 30 28 22 35 28 25 28 20 19 12 6 10 11 10 17 12 8 6 8 14 10 9 18 16 28 24 20 49
53 53 51 45 45 44 44 42 38 36 31 33 33 30 24 17 15 21 30 28 29 30 28 25 16 14 14 10 10 9 15 12 13 14 12 7 7 9 9 8 33 52 40 36 56
60 57 55 49 47 45 45 41 36 35 35 28 30 26 27 16 12 5 20 29 37 31 31 32 30 12 5 8 8 4 24 20 9 14 23 15 17 10 27 33 26 38 45 50 62
63 63 60 55 49 46 46 42 37 34 35 32 27 26 26 18 21 11 17 7 33 26 23 29 33 24 10 7 4 4 8 22 12 12 12 28 25 23 24 43 23 28 45 54 58
74 66 63 64 56 47 43 43 40 39 37 31 28 30 31 17 22 39 26 10 14 19 20 21 14 24 13 13 10 2 13 38 31 26 21 9 29 23 38 39 39 29 49 60 63
82 73 69 65 63 55 47 42 41 43 42 35 30 33 33 44 14 32 32 22 15 24 27 22 22 19 14 3 8 2 9 16 18 10 14 8 20 15 59 39 44 46 45 61 69
83 81 73 72 70 62 50 43 38 41 45 37 34 35 20 33 39 22 17 25 22 24 18 17 25 23 8 8 2 5 1 8 3 10 12 17 39 6 46 51 47 53 56 64 72
80 87 81 75 72 65 51 44 37 37 44 42 37 25 13 24 42 34 18 22 24 25 18 16 17 11 12 5 7 5 5 7 11 10 10 19 9 22 54 49 57 61 65 67 71
82 88 90 81 76 70 56 46 36 40 42 38 30 15 23 31 44 49 35 28 25 28 23 18 14 7 7 15 21 16 10 12 15 5 5 16 29 16 40 37 67 78 77 73 79
80 90 89 85 80 77 64 59 37 18 50 21 25 12 8 31 33 56 51 33 33 27 12 17 10 31 33 25 15 6 14 19 3 5 2 14 34 18 45 52 48 63 72 81 93
84 81 91 94 87 83 80 81 71 20 24 47 12 37 13 37 22 44 56 39 20 21 12 1 34 7 11 18 32 25 25 28 6 6 3 18 41 24 31 55 49 61 77 83 93
81 91 90 102 96 92 99 97 76 37 15 32 30 39 38 32 16 46 59 41 20 28 34 33 11 39 24 15 30 38 43 26 18 6 11 8 41 33 23 56 59 68 76 88 93
66 69 91 91 91 100 105 88 70 33 9 8 27 29 32 19 8 46 62 43 15 34 26 26 47 9 16 36 30 40 26 24 24 10 20 8 30 42 19 39 37 68 69 79 101
66 72 73 113 103 111 103 87 72 32 6 14 22 20 54 27 33 32 61 38 20 16 15 18 15 33 40 37 29 28 12 16 29 29 25 34 12 44 23 37 49 35 67 80 103
71 76 73 100 112 112 97 92 64 11 15 8 18 23 25 44 16 29 37 30 20 10 10 17 5 14 16 32 36 10 17 12 16 24 23 56 32 56 38 50 36 29 58 84 96
79 75 82 85 99 105 101 83 18 17 6 21 20 30 39 32 24 15 31 29 16 20 22 17 27 6 9 12 17 22 15 8 9 11 25 21 27 54 17 31 48 32 48 75 89
81 79 81 89 50 120 108 32 21 25 16 9 19 36 31 23 24 25 33 31 34 14 8 24 11 43 18 43 10 25 26 10 14 13 21 7 22 41 32 75 88 74 75 67 80
81 81 81 85 86 105 91 35 27 26 20 29 34 36 18 20 19 14 35 42 33 40 20 17 17 4 6 10 31 14 22 29 22 12 8 10 19 32 34 27 35 64 69 76 71
83 86 85 77 71 114 45 38 13 19 20 29 18 22 31 45 20 32 32 33 27 54 14 7 8 11 12 10 27 36 8 14 20 31 49 18 27 31 9 37 46 39 54 75 89
80 51 65 79 76 62 37 20 18 24 47 16 14 16 26 36 27 35 29 11 51 34 58 10 9 5 16 26 35 19 23 19 8 12 23 30 24 37 38 21 34 41 72 84 81
76 23 62 83 27 19 33 20 24 20 19 9 10 9 29 38 30 38 29 13 43 45 49 46 8 25 43 6 27 37 40 47 21 36 16 24 46 7 20 36 40 47 63 78 73
40 24 43 89 29 25 28 22 14 18 17 14 8 6 6 26 20 27 17 14 22 36 28 25 19 17 8 7 10 30 47 44 46 9 43 35 38 15 12 19 47 45 61 64 57
28 12 25 68 49 32 39 32 16 15 10 10 11 12 14 12 4 30 16 11 30 36 49 42 11 17 28 8 10 24 39 49 44 28 43 38 66 43 17 20 23 42 51 45 47
21 10 14 14 24 28 42 39 32 19 8 21 7 10 18 10 24 9 14 5 5 26 17 15 22 21 39 38 28 33 47 56 52 65 34 65 51 47 36 35 26 47 47 43 49
14 12 9 9 46 27 48 46 52 27 19 30 20 21 31 18 16 15 15 7 9 6 14 8 14 10 36 28 37 49 43 48 60 66 59 75 61 17 23 30 28 46 42 47 56
25 24 23 22 26 31 32 55 44 29 8 21 20 22 20 14 26 31 40 15 9 16 13 10 7 3 13 11 23 37 68 52 61 61 63 56 81 22 18 21 23 45 53 55 53
Wind_Direction_850mb
242 241 240 239 240 240 237 234 239 239 233 234 241 245 244 247 251 253 244 239 236 244 260 265 243 231 262 229 159 135 82 225 231 175 244 288 208 209 203 173 171 198 227 240 189
245 239 238 242 240 239 242 237 232 235 237 229 232 241 243 240 248 254 260 258 240 229 241 254 251 226 219 245 206 154 145 220 208 224 233 301 211 229 191 183 209 203 209 208 184
241 237 235 237 241 241 240 240 233 226 227 228 224 230 237 236 269 260 257 248 237 228 220 229 233 209 218 208 213 214 188 150 229 251 296 318 262 209 202 248 214 203 198 193 188
237 234 235 234 238 241 240 239 232 223 218 226 216 221 226 218 212 204 246 222 215 212 214 220 223 188 199 201 237 251 250 198 202 255 310 275 277 244 216 229 257 226 217 195 197
237 232 232 229 234 238 240 237 229 219 217 218 218 211 211 214 224 199 51 190 204 199 202 212 209 195 188 185 241 229 280 282 249 235 249 294 282 263 241 245 257 229 210 208 207
236 232 228 226 227 232 235 233 225 212 211 209 215 208 204 222 236 232 248 260 203 199 187 193 216 209 192 201 190 171 272 274 287 283 262 267 279 260 259 256 242 238 217 213 215
231 231 228 225 222 227 231 233 224 210 204 205 205 215 211 223 233 226 236 231 204 209 216 211 216 200 171 174 230 265 279 301 279 245 241 220 273 198 252 254 238 234 228 217 223
225 227 227 223 219 220 223 221 217 207 199 196 201 204 225 231 228 217 202 206 196 203 202 203 204 223 180 147 142 197 140 248 43 172 226 196 243 229 247 243 240 234 230 222 225
230 226 225 221 215 214 212 208 205 202 196 196 201 197 235 215 203 197 167 181 186 178 195 198 194 207 167 166 236 204 259 208 318 209 210 206 272 234 248 247 242 241 236 231 229
233 228 221 220 211 208 202 194 185 191 187 195 207 189 219 201 199 190 180 194 162 175 181 184 184 197 187 191 216 214 220 218 203 195 37 286 266 271 267 249 233 245 244 239 237
228 226 213 213 210 203 191 173 171 183 187 181 193 199 294 192 188 197 194 171 161 167 167 184 203 215 214 217 235 334 245 243 145 187 281 246 271 250 257 260 247 253 249 245 242
222 220 220 216 209 200 195 185 185 188 183 206 182 198 194 167 162 188 189 187 179 188 179 18 241 166 198 212 233 241 262 263 311 234 294 278 272 251 244 258 248 248 251 250 247
221 219 232 215 206 199 199 199 186 149 138 212 206 201 171 179 177 189 183 186 183 195 205 213 221 200 207 212 231 237 240 252 253 5 254 319 283 265 241 257 252 255 252 254 255
210 212 207 201 197 195 202 194 187 165 82 209 193 212 191 165 228 192 187 173 175 200 193 230 236 198 196 225 207 242 217 246 267 277 262 150 278 262 221 245 241 237 237 244 251
207 212 209 203 193 193 194 186 174 153 133 192 176 188 196 180 139 196 186 187 181 163 181 219 181 208 223 218 207 237 169 204 231 246 260 251 258 276 193 235 245 234 232 234 248
226 217 214 208 193 195 191 175 161 114 222 187 143 165 158 193 182 161 187 203 182 179 229 224 184 197 212 215 206 171 251 288 257 233 235 239 219 273 241 240 264 232 236 236 240
226 221 223 210 185 185 180 166 171 181 222 172 181 174 174 186 186 163 189 195 174 186 218 211 231 246 218 184 208 201 197 233 231 213 243 235 221 243 253 252 234 242 238 242 245
212 222 223 221 201 177 171 174 191 190 196 161 159 169 183 144 201 176 168 199 219 203 153 203 274 212 183 216 197 205 198 205 223 227 251 214 216 238 238 243 250 257 252 247 245
209 214 220 221 217 177 167 189 173 179 167 149 131 157 186 192 163 162 191 203 201 198 187 178 243 204 161 167 186 190 224 226 274 248 264 218 272 287 264 255 248 244 240 239 250
205 208 216 213 215 183 183 175 169 156 129 150 149 173 181 184 164 190 178 210 213 204 191 236 267 188 184 169 217 224 209 197 209 244 247 234 247 249 242 231 230 228 233 233 235
204 200 215 208 202 192 192 189 175 172 151 154 154 149 179 181 188 187 197 238 199 190 199 197 205 198 144 202 195 202 227 227 268 205 242 258 254 241 237 225 239 246 236 232 232
198 204 197 194 186 187 184 176 180 166 158 114 114 104 163 167 183 190 205 218 186 176 196 206 224 243 228 151 220 224 224 218 228 225 227 255 264 215 242 232 236 248 241 233 235
193 171 198 193 200 174 167 178 205 155 151 152 133 139 154 165 173 201 180 220 179 180 181 173 205 239 249 243 229 219 218 223 232 270 236 232 254 214 280 283 254 237 242 232 219
157 158 172 199 200 168 166 173 165 151 137 129 129 108 110 153 195 187 189 196 199 192 208 162 194 220 235 214 151 214 222 220 221 232 242 239 256 261 287 258 269 264 237 207 203
170 175 186 173 203 172 167 165 175 160 169 142 76 190 151 141 193 157 165 131 205 204 199 211 248 244 255 265 269 225 222 215 217 229 228 245 243 258 256 274 266 260 224 190 195
150 132 127 180 183 199 172 183 180 170 162 178 154 186 187 163 169 148 135 186 192 188 182 181 247 224 267 270 254 251 249 224 221 227 234 249 258 276 267 250 239 243 233 210 203
162 154 146 171 177 174 193 177 183 161 25 180 127 163 201 154 124 139 172 184 170 150 170 161 153 190 277 289 303 259 227 221 226 228 225 234 241 240 288 281 270 250 235 228 217